Time,TemperatureF,DewpointF,PressureIn,WindDirection,WindDirectionDegrees,WindSpeedMPH,WindSpeedGustMPH,Humidity,HourlyPrecipIn,Conditions,Clouds,dailyrainin,SolarRadiationWatts/m^2,SoftwareType,DateUTC
2013-03-09 00:11:00,73.0,63.0,30.00,SE,145,9.0,13.0,71,0.00,,,0.00,0.000000,,2013-03-09 10:11:00,
2013-03-09 00:21:00,73.0,63.0,30.00,SE,145,9.0,13.0,71,0.00,,,0.00,0.000000,,2013-03-09 10:21:00,
2013-03-09 00:31:00,73.0,63.0,30.00,SE,145,9.0,13.0,71,0.00,,,0.00,0.000000,,2013-03-09 10:31:00,
2013-03-09 00:41:00,73.0,63.0,30.00,SE,145,9.0,13.0,71,0.00,,,0.00,0.000000,,2013-03-09 10:41:00,
2013-03-09 00:51:00,73.0,63.0,30.00,SE,145,9.0,13.0,71,0.00,,,0.00,0.000000,,2013-03-09 10:51:00,
2013-03-09 01:11:00,73.0,63.0,29.99,SE,140,10.0,15.0,72,0.00,,,0.00,0.000000,,2013-03-09 11:11:00,
2013-03-09 01:21:00,73.0,63.0,29.99,SE,140,10.0,15.0,72,0.00,,,0.00,0.000000,,2013-03-09 11:21:00,
2013-03-09 01:32:00,73.0,63.0,29.99,SE,140,10.0,15.0,72,0.00,,,0.00,0.000000,,2013-03-09 11:32:00,
2013-03-09 01:41:00,73.0,63.0,29.99,SE,140,10.0,15.0,72,0.00,,,0.00,0.000000,,2013-03-09 11:41:00,
2013-03-09 01:52:00,73.0,63.0,29.99,SE,140,10.0,15.0,72,0.00,,,0.00,0.000000,,2013-03-09 11:52:00,
2013-03-09 02:11:00,73.0,64.0,29.96,SE,140,12.0,17.0,73,0.00,,,0.00,0.000000,,2013-03-09 12:11:00,
2013-03-09 02:21:00,73.0,64.0,29.96,SE,140,12.0,17.0,73,0.00,,,0.00,0.000000,,2013-03-09 12:21:00,
2013-03-09 02:32:00,73.0,64.0,29.96,SE,140,12.0,17.0,73,0.00,,,0.00,0.000000,,2013-03-09 12:32:00,
2013-03-09 02:42:00,73.0,64.0,29.96,SE,140,12.0,17.0,73,0.00,,,0.00,0.000000,,2013-03-09 12:42:00,
2013-03-09 02:52:00,73.0,64.0,29.96,SE,140,12.0,17.0,73,0.00,,,0.00,0.000000,,2013-03-09 12:52:00,
2013-03-09 03:21:00,74.0,65.0,29.95,SE,134,10.0,17.0,73,0.00,,,0.00,0.000000,,2013-03-09 13:21:00,
2013-03-09 03:31:00,74.0,65.0,29.95,SE,134,10.0,17.0,73,0.00,,,0.00,0.000000,,2013-03-09 13:31:00,
2013-03-09 03:41:00,74.0,65.0,29.95,SE,134,10.0,17.0,73,0.00,,,0.00,0.000000,,2013-03-09 13:41:00,
2013-03-09 03:51:00,74.0,65.0,29.95,SE,134,10.0,17.0,73,0.00,,,0.00,0.000000,,2013-03-09 13:51:00,
2013-03-09 04:11:00,74.0,65.0,29.93,SE,133,10.0,17.0,73,0.00,,,0.00,0.000000,,2013-03-09 14:11:00,
2013-03-09 04:21:00,74.0,65.0,29.93,SE,133,10.0,17.0,73,0.00,,,0.00,0.000000,,2013-03-09 14:21:00,
2013-03-09 04:31:00,74.0,65.0,29.93,SE,133,10.0,17.0,73,0.00,,,0.00,0.000000,,2013-03-09 14:31:00,
2013-03-09 04:41:00,74.0,65.0,29.93,SE,133,10.0,17.0,73,0.00,,,0.00,0.000000,,2013-03-09 14:41:00,
2013-03-09 04:52:00,74.0,65.0,29.93,SE,133,10.0,17.0,73,0.00,,,0.00,0.000000,,2013-03-09 14:52:00,
2013-03-09 05:22:00,74.0,65.0,29.92,SE,133,11.0,18.0,73,0.00,,,0.00,0.000000,,2013-03-09 15:22:00,
2013-03-09 05:31:00,74.0,65.0,29.92,SE,133,11.0,18.0,73,0.00,,,0.00,0.000000,,2013-03-09 15:31:00,
2013-03-09 05:42:00,74.0,65.0,29.92,SE,133,11.0,18.0,73,0.00,,,0.00,0.000000,,2013-03-09 15:42:00,
2013-03-09 05:52:00,74.0,65.0,29.92,SE,133,11.0,18.0,73,0.00,,,0.00,0.000000,,2013-03-09 15:52:00,
2013-03-09 06:11:00,74.0,65.0,29.93,SE,146,14.0,22.0,73,0.00,,,0.00,0.000000,,2013-03-09 16:11:00,
2013-03-09 06:21:00,74.0,65.0,29.93,SE,146,14.0,22.0,73,0.00,,,0.00,0.000000,,2013-03-09 16:21:00,
2013-03-09 06:31:00,74.0,65.0,29.93,SE,146,14.0,22.0,73,0.00,,,0.00,0.000000,,2013-03-09 16:31:00,
2013-03-09 06:41:00,74.0,65.0,29.93,SE,146,14.0,22.0,73,0.00,,,0.00,0.000000,,2013-03-09 16:41:00,
2013-03-09 06:51:00,74.0,65.0,29.93,SE,146,14.0,22.0,73,0.00,,,0.00,0.000000,,2013-03-09 16:51:00,
2013-03-09 07:22:00,73.0,64.0,29.95,SE,138,15.0,23.0,74,0.00,,,0.00,1.000000,,2013-03-09 17:22:00,
2013-03-09 07:32:00,73.0,64.0,29.95,SE,138,15.0,23.0,74,0.00,,,0.00,1.000000,,2013-03-09 17:32:00,
2013-03-09 07:42:00,73.0,64.0,29.95,SE,138,15.0,23.0,74,0.00,,,0.00,1.000000,,2013-03-09 17:42:00,
2013-03-09 07:52:00,73.0,64.0,29.95,SE,138,15.0,23.0,74,0.00,,,0.00,1.000000,,2013-03-09 17:52:00,
2013-03-09 08:21:00,76.0,65.0,29.97,SE,143,14.0,22.0,70,0.00,,,0.00,68.000000,,2013-03-09 18:21:00,
2013-03-09 08:31:00,76.0,65.0,29.97,SE,143,14.0,22.0,70,0.00,,,0.00,68.000000,,2013-03-09 18:31:00,
2013-03-09 08:42:00,76.0,65.0,29.97,SE,143,14.0,22.0,70,0.00,,,0.00,68.000000,,2013-03-09 18:42:00,
2013-03-09 08:51:00,76.0,65.0,29.97,SE,143,14.0,22.0,70,0.00,,,0.00,68.000000,,2013-03-09 18:51:00,
2013-03-09 09:22:00,77.0,64.0,29.99,SE,136,13.0,24.0,64,0.00,,,0.00,305.000000,,2013-03-09 19:22:00,
2013-03-09 09:32:00,77.0,64.0,29.99,SE,136,13.0,24.0,64,0.00,,,0.00,305.000000,,2013-03-09 19:32:00,
2013-03-09 09:41:00,77.0,64.0,29.99,SE,136,13.0,24.0,64,0.00,,,0.00,305.000000,,2013-03-09 19:41:00,
2013-03-09 09:51:00,77.0,64.0,29.99,SE,136,13.0,24.0,64,0.00,,,0.00,305.000000,,2013-03-09 19:51:00,
2013-03-09 10:11:00,79.0,66.0,29.99,SE,142,14.0,23.0,64,0.00,,,0.00,640.000000,,2013-03-09 20:11:00,
2013-03-09 10:21:00,79.0,66.0,29.99,SE,142,14.0,23.0,64,0.00,,,0.00,640.000000,,2013-03-09 20:21:00,
2013-03-09 10:31:00,79.0,66.0,29.99,SE,142,14.0,23.0,64,0.00,,,0.00,640.000000,,2013-03-09 20:31:00,
2013-03-09 10:41:00,79.0,66.0,29.99,SE,142,14.0,23.0,64,0.00,,,0.00,640.000000,,2013-03-09 20:41:00,
2013-03-09 10:52:00,79.0,66.0,29.99,SE,142,14.0,23.0,64,0.00,,,0.00,640.000000,,2013-03-09 20:52:00,
2013-03-09 11:11:00,79.0,65.0,30.00,SE,144,16.0,26.0,62,0.00,,,0.00,774.000000,,2013-03-09 21:11:00,
2013-03-09 11:21:00,79.0,65.0,30.00,SE,144,16.0,26.0,62,0.00,,,0.00,774.000000,,2013-03-09 21:21:00,
2013-03-09 11:31:00,79.0,65.0,30.00,SE,144,16.0,26.0,62,0.00,,,0.00,774.000000,,2013-03-09 21:31:00,
2013-03-09 11:41:00,79.0,65.0,30.00,SE,144,16.0,26.0,62,0.00,,,0.00,774.000000,,2013-03-09 21:41:00,
2013-03-09 11:51:00,79.0,65.0,30.00,SE,144,16.0,26.0,62,0.00,,,0.00,774.000000,,2013-03-09 21:51:00,
2013-03-09 12:11:00,81.0,67.0,29.97,SSE,149,16.0,25.0,63,0.00,,,0.00,661.000000,,2013-03-09 22:11:00,
2013-03-09 12:21:00,81.0,67.0,29.97,SSE,149,16.0,25.0,63,0.00,,,0.00,661.000000,,2013-03-09 22:21:00,
2013-03-09 12:32:00,81.0,67.0,29.97,SSE,149,16.0,25.0,63,0.00,,,0.00,661.000000,,2013-03-09 22:32:00,
2013-03-09 12:41:00,81.0,67.0,29.97,SSE,149,16.0,25.0,63,0.00,,,0.00,661.000000,,2013-03-09 22:41:00,
2013-03-09 12:51:00,81.0,67.0,29.97,SSE,149,16.0,25.0,63,0.00,,,0.00,661.000000,,2013-03-09 22:51:00,
2013-03-09 13:11:00,81.0,66.0,29.94,SSE,150,17.0,26.0,60,0.00,,,0.00,1242.000000,,2013-03-09 23:11:00,
2013-03-09 13:21:00,81.0,66.0,29.94,SSE,150,17.0,26.0,60,0.00,,,0.00,1242.000000,,2013-03-09 23:21:00,
2013-03-09 13:32:00,81.0,66.0,29.94,SSE,150,17.0,26.0,60,0.00,,,0.00,1242.000000,,2013-03-09 23:32:00,
2013-03-09 13:41:00,81.0,66.0,29.94,SSE,150,17.0,26.0,60,0.00,,,0.00,1242.000000,,2013-03-09 23:41:00,
2013-03-09 13:52:00,81.0,66.0,29.94,SSE,150,17.0,26.0,60,0.00,,,0.00,1242.000000,,2013-03-09 23:52:00,
2013-03-09 14:11:00,81.0,67.0,29.93,SSE,151,16.0,25.0,62,0.00,,,0.00,968.000000,,2013-03-10 00:11:00,
2013-03-09 14:22:00,81.0,67.0,29.93,SSE,151,16.0,25.0,62,0.00,,,0.00,968.000000,,2013-03-10 00:22:00,
2013-03-09 14:32:00,81.0,67.0,29.93,SSE,151,16.0,25.0,62,0.00,,,0.00,968.000000,,2013-03-10 00:32:00,
2013-03-09 14:42:00,81.0,67.0,29.93,SSE,151,16.0,25.0,62,0.00,,,0.00,968.000000,,2013-03-10 00:42:00,
2013-03-09 14:51:00,81.0,67.0,29.93,SSE,151,16.0,25.0,62,0.00,,,0.00,968.000000,,2013-03-10 00:51:00,
2013-03-09 15:11:00,80.0,66.0,29.91,SSE,151,13.0,25.0,62,0.00,,,0.00,722.000000,,2013-03-10 01:11:00,
2013-03-09 15:21:00,80.0,66.0,29.91,SSE,151,13.0,25.0,62,0.00,,,0.00,722.000000,,2013-03-10 01:21:00,
2013-03-09 15:31:00,80.0,66.0,29.91,SSE,151,13.0,25.0,62,0.00,,,0.00,722.000000,,2013-03-10 01:31:00,
2013-03-09 15:41:00,80.0,66.0,29.91,SSE,151,13.0,25.0,62,0.00,,,0.00,722.000000,,2013-03-10 01:41:00,
2013-03-09 15:51:00,80.0,66.0,29.91,SSE,151,13.0,25.0,62,0.00,,,0.00,722.000000,,2013-03-10 01:51:00,
2013-03-09 16:22:00,79.0,67.0,29.91,SSE,164,14.0,24.0,66,0.00,,,-99.99,405.000000,,2013-03-10 02:22:00,
2013-03-09 16:31:00,79.0,67.0,29.91,SSE,164,14.0,24.0,66,0.00,,,-99.99,405.000000,,2013-03-10 02:31:00,
2013-03-09 16:41:00,79.0,67.0,29.91,SSE,164,14.0,24.0,66,0.00,,,-99.99,405.000000,,2013-03-10 02:41:00,
2013-03-09 16:52:00,79.0,67.0,29.91,SSE,164,14.0,24.0,66,0.00,,,-99.99,405.000000,,2013-03-10 02:52:00,
2013-03-09 17:11:00,76.0,65.0,29.91,SSE,163,15.0,24.0,68,0.00,,,0.00,191.000000,,2013-03-10 03:11:00,
2013-03-09 17:22:00,76.0,65.0,29.91,SSE,163,15.0,24.0,68,0.00,,,0.00,191.000000,,2013-03-10 03:22:00,
2013-03-09 17:31:00,76.0,65.0,29.91,SSE,163,15.0,24.0,68,0.00,,,0.00,191.000000,,2013-03-10 03:31:00,
2013-03-09 17:42:00,76.0,65.0,29.91,SSE,163,15.0,24.0,68,0.00,,,0.00,191.000000,,2013-03-10 03:42:00,
2013-03-09 17:52:00,76.0,65.0,29.91,SSE,163,15.0,24.0,68,0.00,,,0.00,191.000000,,2013-03-10 03:52:00,
2013-03-09 18:21:00,75.0,64.0,29.93,SSE,162,13.0,23.0,69,0.00,,,0.00,91.000000,,2013-03-10 04:21:00,
2013-03-09 18:31:00,75.0,64.0,29.93,SSE,162,13.0,23.0,69,0.00,,,0.00,91.000000,,2013-03-10 04:31:00,
2013-03-09 18:41:00,75.0,64.0,29.93,SSE,162,13.0,23.0,69,0.00,,,0.00,91.000000,,2013-03-10 04:41:00,
2013-03-09 18:51:00,75.0,64.0,29.93,SSE,162,13.0,23.0,69,0.00,,,0.00,91.000000,,2013-03-10 04:51:00,
2013-03-09 19:22:00,76.0,66.0,29.94,South,169,12.0,21.0,71,0.00,,,0.00,7.000000,,2013-03-10 05:22:00,
2013-03-09 19:31:00,76.0,66.0,29.94,South,169,12.0,21.0,71,0.00,,,0.00,7.000000,,2013-03-10 05:31:00,
2013-03-09 19:42:00,76.0,66.0,29.94,South,169,12.0,21.0,71,0.00,,,0.00,7.000000,,2013-03-10 05:42:00,
2013-03-09 19:52:00,76.0,66.0,29.94,South,169,12.0,21.0,71,0.00,,,0.00,7.000000,,2013-03-10 05:52:00,
2013-03-09 20:11:00,69.0,64.0,29.96,SW,231,19.0,32.0,84,0.00,,,0.00,0.000000,,2013-03-10 06:11:00,
2013-03-09 20:21:00,69.0,64.0,29.96,SW,231,19.0,32.0,84,0.00,,,0.00,0.000000,,2013-03-10 06:21:00,
2013-03-09 20:32:00,69.0,64.0,29.96,SW,231,19.0,32.0,84,0.00,,,0.00,0.000000,,2013-03-10 06:32:00,
2013-03-09 20:41:00,69.0,64.0,29.96,SW,231,19.0,32.0,84,0.00,,,0.00,0.000000,,2013-03-10 06:41:00,
2013-03-09 20:51:00,69.0,64.0,29.96,SW,231,19.0,32.0,84,0.00,,,0.00,0.000000,,2013-03-10 06:51:00,
2013-03-09 21:11:00,70.0,65.0,29.99,WSW,255,14.0,28.0,84,0.00,,,0.00,0.000000,,2013-03-10 07:11:00,
2013-03-09 21:21:00,70.0,65.0,29.99,WSW,255,14.0,28.0,84,0.00,,,0.00,0.000000,,2013-03-10 07:21:00,
2013-03-09 21:31:00,70.0,65.0,29.99,WSW,255,14.0,28.0,84,0.00,,,0.00,0.000000,,2013-03-10 07:31:00,
2013-03-09 21:41:00,70.0,65.0,29.99,WSW,255,14.0,28.0,84,0.00,,,0.00,0.000000,,2013-03-10 07:41:00,
2013-03-09 21:52:00,70.0,65.0,29.99,WSW,255,14.0,28.0,84,0.00,,,0.00,0.000000,,2013-03-10 07:52:00,
2013-03-09 22:11:00,70.0,64.0,29.99,SW,214,14.0,21.0,80,0.00,,,0.00,0.000000,,2013-03-10 08:11:00,
2013-03-09 22:21:00,70.0,64.0,29.99,SW,214,14.0,21.0,80,0.00,,,0.00,0.000000,,2013-03-10 08:21:00,
2013-03-09 22:31:00,70.0,64.0,29.99,SW,214,14.0,21.0,80,0.00,,,0.00,0.000000,,2013-03-10 08:31:00,
2013-03-09 22:42:00,70.0,64.0,29.99,SW,214,14.0,21.0,80,0.00,,,0.00,0.000000,,2013-03-10 08:42:00,
2013-03-09 22:51:00,70.0,64.0,29.99,SW,214,14.0,21.0,80,0.00,,,0.00,0.000000,,2013-03-10 08:51:00,
2013-03-09 23:21:00,70.0,62.0,29.99,South,189,7.0,20.0,76,0.00,,,0.00,0.000000,,2013-03-10 09:21:00,
2013-03-09 23:31:00,70.0,62.0,29.99,South,189,7.0,20.0,76,0.00,,,0.00,0.000000,,2013-03-10 09:31:00,
2013-03-09 23:41:00,70.0,62.0,29.99,South,189,7.0,20.0,76,0.00,,,0.00,0.000000,,2013-03-10 09:41:00,
2013-03-09 23:51:00,70.0,62.0,29.99,South,189,7.0,20.0,76,0.00,,,0.00,0.000000,,2013-03-10 09:51:00,